EW5962 Weather Reports


Display with metric or nautical units.
time (UTC)temp
F
wind
direction
speed
MPH
gust
MPH
rain 1hr
in
rain 24hr
in
rain mn
in
humidity
%
barometer
mb
20260502164009 55 347 0.0 7.0 0.00 0.00 0.00 50 1012.7
20260502163603 55 340 0.0 7.0 0.00 0.00 0.00 51 1013.0
20260502163006 55 323 0.0 7.0 0.00 0.00 0.00 52 1013.0
20260502162512 55 347 0.0 6.0 0.00 0.00 0.00 53 1012.9
20260502162106 55 20 0.0 3.0 0.00 0.00 0.00 56 1013.0
20260502161503 55 349 0.0 1.0 0.00 0.00 0.00 59 1012.8
20260502161011 55 323 0.0 1.0 0.00 0.00 0.00 56 1013.1
20260502160603 54 279 0.0 8.0 0.00 0.00 0.00 57 1013.1
20260502152103 53 337 0.0 2.0 0.00 0.00 0.00 59 1013.4
20260502151503 53 29 0.0 2.0 0.00 0.00 0.00 59 1013.5
20260502151010 53 294 0.0 0.0 0.00 0.00 0.00 57 1013.3
20260502150602 53 316 0.0 1.0 0.00 0.00 0.00 58 1013.4
20260502130503 53 313 0.0 0.0 0.00 0.00 0.00 69 1012.6
20260502123503 53 299 0.0 1.0 0.00 0.00 0.00 70 1011.9
20260502123024 53 339 0.0 0.0 0.00 0.00 0.00 72 1011.8
20260502122602 53 2 0.0 0.0 0.00 0.00 0.00 74 1011.9
20260502122104 53 1 0.0 0.0 0.00 0.00 0.00 72 1012.0
20260502121513 53 349 0.0 0.0 0.00 0.00 0.00 73 1012.2
20260502121018 53 308 0.0 0.0 0.00 0.00 0.00 74 1012.2
20260502120603 53 304 0.0 0.0 0.00 0.00 0.00 74 1012.2
20260502115603 53 351 0.0 0.0 0.00 0.00 0.00 75 1012.3
20260502115003 53 344 0.0 0.0 0.00 0.00 0.00 74 1012.2
20260502114510 52 352 0.0 0.0 0.00 0.00 0.00 76 1012.2
20260502114103 52 306 0.0 0.0 0.00 0.00 0.00 76 1011.9
20260502113503 52 9 0.0 0.0 0.00 0.00 0.00 80 1011.8
20260502113010 52 349 0.0 0.0 0.00 0.00 0.00 79 1011.9
20260502112603 52 349 0.0 0.0 0.00 0.00 0.00 80 1011.8
20260502112003 52 314 0.0 0.0 0.00 0.00 0.00 81 1011.8
20260502111509 52 311 0.0 0.0 0.00 0.00 0.00 82 1011.9
20260502111103 51 323 0.0 0.0 0.00 0.00 0.00 84 1011.8
20260502110503 51 349 0.0 0.0 0.00 0.00 0.00 87 1011.8
20260502110008 51 347 0.0 0.0 0.00 0.00 0.00 88 1011.7
20260502105603 51 347 0.0 0.0 0.00 0.00 0.00 88 1011.7
20260502105003 51 347 0.0 0.0 0.00 0.00 0.00 89 1011.7
20260502104515 51 3 0.0 0.0 0.00 0.00 0.00 90 1011.4
20260502104105 51 10 0.0 0.0 0.00 0.00 0.00 91 1011.3
20260502103503 51 8 0.0 0.0 0.00 0.00 0.00 92 1011.5
20260502103009 51 26 0.0 0.0 0.00 0.00 0.00 92 1011.5
20260502102604 51 25 0.0 0.0 0.00 0.00 0.00 91 1011.6
20260502102004 51 348 0.0 0.0 0.00 0.00 0.00 92 1011.6
20260502101511 51 348 0.0 0.0 0.00 0.00 0.00 92 1011.7
20260502101104 51 348 0.0 0.0 0.00 0.00 0.00 92 1011.6
20260502100503 51 348 0.0 0.0 0.00 0.00 0.00 92 1011.9
20260502091509 51 348 0.0 0.0 0.00 0.00 0.00 92 1012.3
20260502091106 51 348 0.0 0.0 0.00 0.00 0.00 92 1012.1
20260502090502 51 348 0.0 0.0 0.00 0.00 0.00 91 1012.1
20260502071509 51 348 0.0 0.0 0.00 0.00 0.00 90 1011.0
20260502071103 51 348 0.0 0.0 0.00 0.00 0.00 89 1011.0
20260502070502 51 348 0.0 0.0 0.00 0.00 0.00 89 1010.9
20260502070009 51 348 0.0 0.0 0.00 0.00 0.00 90 1010.9
20260502065603 51 348 0.0 0.0 0.00 0.00 0.00 89 1010.9
20260502065002 51 348 0.0 0.0 0.00 0.00 0.00 90 1011.0
20260502064516 51 348 0.0 1.0 0.00 0.00 0.00 90 1011.1
20260502064104 51 348 0.0 1.0 0.00 0.00 0.00 89 1011.0
20260502063503 51 51 0.0 3.0 0.00 0.00 0.00 90 1011.2
20260502063011 51 8 0.0 3.0 0.00 0.00 0.00 90 1011.5
20260502062603 50 304 0.0 0.0 0.00 0.00 0.00 90 1011.4
20260502062002 50 232 0.0 0.0 0.00 0.00 0.00 91 1011.2
20260502061509 50 231 0.0 0.0 0.00 0.00 0.00 91 1011.1
20260502061102 50 231 0.0 0.0 0.00 0.00 0.00 90 1011.0
20260502060503 50 231 0.0 0.0 0.00 0.00 0.00 90 1011.1
20260502060009 50 231 0.0 0.0 0.00 0.00 0.00 90 1011.1
20260502055604 50 231 0.0 0.0 0.00 0.00 0.00 90 1011.1
20260502055003 50 231 0.0 0.0 0.00 0.00 0.00 90 1011.2
20260502054508 50 231 0.0 0.0 0.00 0.00 0.00 90 1011.2
20260502054102 50 231 0.0 0.0 0.00 0.00 0.00 90 1011.2
20260502053503 50 231 0.0 0.0 0.00 0.00 0.00 90 1011.2
20260502053012 50 231 0.0 0.0 0.00 0.00 0.00 89 1011.2
20260502052605 50 231 0.0 0.0 0.00 0.00 0.00 89 1011.1
20260502052003 50 231 0.0 0.0 0.00 0.00 0.00 89 1011.2
20260502051508 50 231 0.0 0.0 0.00 0.00 0.00 89 1011.2
20260502051102 50 231 0.0 0.0 0.00 0.00 0.00 89 1011.3
20260502050504 50 231 0.0 0.0 0.00 0.00 0.00 89 1011.4
20260502050011 50 231 0.0 0.0 0.00 0.00 0.00 89 1011.4
20260502045604 50 231 0.0 0.0 0.00 0.00 0.00 89 1011.5
20260502045004 50 231 0.0 0.0 0.00 0.00 0.00 88 1011.4
20260502044509 50 231 0.0 0.0 0.00 0.00 0.00 88 1011.5
20260502044103 50 231 0.0 0.0 0.00 0.00 0.00 88 1011.6
20260502043502 51 231 0.0 0.0 0.00 0.00 0.00 88 1011.5
20260502043009 51 231 0.0 0.0 0.00 0.00 0.00 88 1011.5
20260502042603 51 231 0.0 0.0 0.00 0.00 0.00 87 1011.5
20260502042003 51 232 0.0 0.0 0.00 0.00 0.00 87 1011.5
20260502041516 51 231 0.0 0.0 0.00 0.00 0.00 87 1011.6
20260502041104 51 231 0.0 0.0 0.00 0.00 0.00 87 1011.5
20260502040512 51 231 0.0 0.0 0.00 0.00 0.00 86 1011.5
20260502040105 51 231 0.0 0.0 0.00 0.00 0.00 86 1011.7
20260502035502 51 231 0.0 0.0 0.00 0.00 0.00 86 1011.6
20260502035009 52 231 0.0 0.0 0.00 0.00 0.00 86 1011.8
20260502034603 52 231 0.0 0.0 0.00 0.00 0.00 85 1011.7
20260502034003 52 231 0.0 0.0 0.00 0.00 0.00 85 1011.7
20260502033508 52 231 0.0 0.0 0.00 0.00 0.00 85 1011.7
20260502033105 52 231 0.0 0.0 0.00 0.00 0.00 85 1011.8
20260502032504 52 231 0.0 0.0 0.00 0.00 0.00 84 1012.0
20260502032008 52 231 0.0 0.0 0.00 0.00 0.00 84 1011.9
20260502031603 53 231 0.0 0.0 0.00 0.00 0.00 84 1012.0
20260502031003 53 231 0.0 0.0 0.00 0.00 0.00 83 1012.0
20260502030509 53 231 0.0 0.0 0.00 0.00 0.00 83 1012.0
20260502025503 53 231 0.0 0.0 0.00 0.00 0.00 82 1011.9
20260502025008 53 231 0.0 0.0 0.00 0.00 0.00 82 1011.8
20260502024608 53 231 0.0 0.0 0.00 0.00 0.00 82 1011.9
20260502024003 53 231 0.0 0.0 0.00 0.00 0.00 82 1011.9
20260502023508 53 231 0.0 0.0 0.00 0.00 0.00 82 1012.0
20260502023103 53 231 0.0 0.0 0.00 0.00 0.00 81 1011.9
20260502022503 54 231 0.0 0.0 0.00 0.00 0.00 81 1011.9
20260502022015 54 231 0.0 0.0 0.00 0.00 0.00 80 1011.9
20260502021603 54 231 0.0 0.0 0.00 0.00 0.00 80 1011.9
20260502021003 54 231 0.0 0.0 0.00 0.00 0.00 81 1011.8
20260502020509 54 231 0.0 0.0 0.00 0.00 0.00 80 1011.9
20260502015504 55 231 0.0 0.0 0.00 0.00 0.00 80 1011.9
20260502015016 55 231 0.0 0.0 0.00 0.00 0.00 79 1012.1
20260502014604 55 231 0.0 0.0 0.00 0.00 0.00 79 1012.1
20260502014002 55 231 0.0 0.0 0.00 0.00 0.00 79 1012.2
20260502013508 55 231 0.0 0.0 0.00 0.00 0.00 78 1012.2
20260502013103 55 231 0.0 0.0 0.00 0.00 0.00 78 1012.1
20260502012502 56 231 0.0 0.0 0.00 0.00 0.00 78 1011.9
20260502012009 56 231 0.0 0.0 0.00 0.00 0.00 78 1011.9
20260502011603 56 231 0.0 0.0 0.00 0.00 0.00 77 1011.9
20260502011003 56 231 0.0 0.0 0.00 0.00 0.00 77 1011.8
20260502010511 56 231 0.0 0.0 0.00 0.00 0.00 77 1011.9
20260502005502 57 231 0.0 0.0 0.00 0.00 0.00 76 1011.6
20260502005009 57 231 0.0 0.0 0.00 0.00 0.00 76 1011.5
20260502004604 57 231 0.0 0.0 0.00 0.00 0.00 75 1011.4
20260502004003 57 231 0.0 0.0 0.00 0.00 0.00 75 1011.2
20260502003509 58 231 0.0 0.0 0.00 0.00 0.00 74 1011.0
20260502003102 58 231 0.0 0.0 0.00 0.00 0.00 74 1011.0
20260502002503 58 231 0.0 0.0 0.00 0.00 0.00 73 1011.0
20260502002008 58 231 0.0 0.0 0.00 0.00 0.00 73 1010.9
20260502001604 58 231 0.0 0.0 0.00 0.00 0.00 72 1010.9
20260502001002 58 231 0.0 0.0 0.00 0.00 0.00 72 1010.9
20260502000508 59 179 0.0 0.0 0.00 0.00 0.00 71 1010.7
20260502000105 59 179 0.0 0.0 0.00 0.00 0.00 71 1010.5
20260501235503 59 172 0.0 0.0 0.00 0.00 0.00 70 1010.5
20260501235008 59 149 0.0 0.0 0.00 0.00 0.00 69 1010.5
20260501234602 60 149 0.0 1.0 0.00 0.00 0.00 69 1010.4
20260501234004 60 182 0.0 1.0 0.00 0.00 0.00 68 1010.5
20260501233512 60 166 0.0 1.0 0.00 0.00 0.00 68 1010.5
20260501233106 60 164 0.0 1.0 0.00 0.00 0.00 67 1010.5
20260501232502 60 195 0.0 0.0 0.00 0.00 0.00 67 1010.7
20260501232009 61 190 0.0 1.0 0.00 0.00 0.00 66 1010.6
20260501231639 61 186 0.0 1.0 0.00 0.00 0.00 65 1010.6
20260501231003 61 183 0.0 1.0 0.00 0.00 0.00 65 1010.5
20260501230511 61 164 0.0 1.0 0.00 0.00 0.00 63 1010.4
20260501225503 62 200 0.0 0.0 0.00 0.00 0.00 62 1010.5
20260501225014 62 221 0.0 1.0 0.00 0.00 0.00 61 1010.6
20260501224611 62 219 0.0 1.0 0.00 0.00 0.00 61 1010.4
20260501224002 62 220 0.0 0.0 0.00 0.00 0.00 60 1010.4
20260501223508 62 218 0.0 0.0 0.00 0.00 0.00 58 1010.5
20260501223102 63 217 0.0 0.0 0.00 0.00 0.00 57 1010.5
20260501222502 63 202 0.0 1.0 0.00 0.00 0.00 58 1010.5
20260501222011 63 202 0.0 3.0 0.00 0.00 0.00 58 1010.6
20260501221612 63 233 0.0 3.0 0.00 0.00 0.00 58 1010.5
20260501221002 63 176 0.0 0.0 0.00 0.00 0.00 56 1010.4
20260501220508 64 176 0.0 0.0 0.00 0.00 0.00 56 1010.5
20260501215503 64 157 0.0 0.0 0.00 0.00 0.00 58 1010.6
20260501215009 64 180 0.0 0.0 0.00 0.00 0.00 57 1010.6
20260501214602 64 180 0.0 0.0 0.00 0.00 0.00 58 1010.7
20260501214002 64 176 0.0 0.0 0.00 0.00 0.00 57 1010.7
20260501213510 64 157 0.0 0.0 0.00 0.00 0.00 55 1010.8
20260501213111 64 203 0.0 1.0 0.00 0.00 0.00 55 1010.8
20260501212502 65 176 0.0 5.0 0.00 0.00 0.00 53 1010.8
20260501212008 65 182 0.0 5.0 0.00 0.00 0.00 54 1010.8
20260501211612 66 228 0.0 1.0 0.00 0.00 0.00 54 1010.7
20260501211003 66 192 0.0 1.0 0.00 0.00 0.00 54 1010.8
20260501210509 66 233 0.0 1.0 0.00 0.00 0.00 53 1010.6
20260501210104 66 163 0.0 1.0 0.00 0.00 0.00 52 1010.7
20260501205503 66 172 0.0 1.0 0.00 0.00 0.00 55 1010.6
20260501205009 66 214 0.0 1.0 0.00 0.00 0.00 54 1010.7
20260501204602 66 170 0.0 2.0 0.00 0.00 0.00 53 1010.7
20260501204002 66 204 0.0 1.0 0.00 0.00 0.00 53 1010.9
20260501203508 66 151 0.0 1.0 0.00 0.00 0.00 54 1010.9
20260501203105 66 188 0.0 7.0 0.00 0.00 0.00 53 1011.0
20260501202502 67 214 0.0 3.0 0.00 0.00 0.00 53 1011.0
20260501202010 67 226 0.0 3.0 0.00 0.00 0.00 51 1011.0
20260501201607 68 203 0.0 2.0 0.00 0.00 0.00 50 1011.1
20260501201002 68 162 0.0 6.0 0.00 0.00 0.00 48 1011.1
20260501200513 68 247 1.0 6.0 0.00 0.00 0.00 48 1011.2
20260501195503 68 183 0.0 2.0 0.00 0.00 0.00 51 1011.3
20260501195008 67 187 0.0 4.0 0.00 0.00 0.00 51 1011.4
20260501194609 67 169 0.0 4.0 0.00 0.00 0.00 49 1011.4
20260501194002 68 207 0.0 2.0 0.00 0.00 0.00 48 1011.6
20260501193508 68 185 0.0 2.0 0.00 0.00 0.00 50 1011.7
20260501193102 67 194 0.0 2.0 0.00 0.00 0.00 45 1011.8
20260501192504 67 182 0.0 5.0 0.00 0.00 0.00 49 1012.0
20260501192008 67 197 0.0 5.0 0.00 0.00 0.00 51 1012.0
20260501191602 67 169 0.0 1.0 0.00 0.00 0.00 49 1012.0
20260501191003 67 190 0.0 2.0 0.00 0.00 0.00 50 1012.2
20260501190509 67 219 0.0 2.0 0.00 0.00 0.00 49 1012.2
20260501185502 68 248 0.0 3.0 0.00 0.00 0.00 47 1012.4
20260501185013 68 227 0.0 0.0 0.00 0.00 0.00 47 1012.3
20260501184602 68 227 0.0 0.0 0.00 0.00 0.00 44 1012.4
20260501184002 68 188 0.0 2.0 0.00 0.00 0.00 47 1012.6
20260501183511 68 243 0.0 4.0 0.00 0.00 0.00 45 1012.6
20260501183102 68 330 0.0 4.0 0.00 0.00 0.00 45 1012.6
20260501182503 67 193 0.0 0.0 0.00 0.00 0.00 46 1012.6
20260501182008 66 356 0.0 4.0 0.00 0.00 0.00 45 1012.7
20260501181604 66 221 0.0 4.0 0.00 0.00 0.00 46 1013.0
20260501181002 67 215 0.0 0.0 0.00 0.00 0.00 44 1013.0
20260501180513 67 191 0.0 2.0 0.00 0.00 0.00 45 1013.0
20260501175503 66 314 0.0 4.0 0.00 0.00 0.00 44 1013.1
20260501175008 66 183 0.0 4.0 0.00 0.00 0.00 45 1013.0
20260501174605 66 220 0.0 2.0 0.00 0.00 0.00 45 1013.1
20260501174002 66 162 0.0 0.0 0.00 0.00 0.00 47 1013.1
20260501173508 66 170 0.0 6.0 0.00 0.00 0.00 45 1013.3
20260501173102 66 167 0.0 6.0 0.00 0.00 0.00 47 1013.3
20260501172503 65 209 0.0 1.0 0.00 0.00 0.00 46 1013.3